This is the latest recevied weather packets stored in our database for station/object HS2XQB-3. If no packets are shown the sender has not sent any weather packets the latest 10 day(s).
| Time | Temp. | Humidity | Pressure | Rain* | Wind** | Luminosity | Snow |
|---|---|---|---|---|---|---|---|
| 1777696904 | 26.11° C | 47% | 1005 hPa | - | - | 0 W/m² | - |
| 1777695082 | 25.56° C | 51% | 1006 hPa | - | - | 0 W/m² | - |
| 1777693260 | 25° C | 56% | 1006 hPa | - | - | 0 W/m² | - |
| 1777691438 | 24.44° C | 46% | 1006 hPa | - | - | 0 W/m² | - |
| 1777689616 | 25.56° C | 46% | 1006 hPa | - | - | 0 W/m² | - |
| 1777687794 | 25.56° C | 48% | 1006 hPa | - | - | 0 W/m² | - |
| 1777685972 | 25° C | 51% | 1006 hPa | - | - | 0 W/m² | - |
| 1777684150 | 25° C | 59% | 1006 hPa | - | - | 0 W/m² | - |
| 1777682328 | 23.89° C | 66% | 1006 hPa | - | - | 0 W/m² | - |
| 1777680506 | 24.44° C | 67% | 1006 hPa | - | - | 0 W/m² | - |
| 1777678684 | 23.89° C | 71% | 1005 hPa | - | - | 0 W/m² | - |
| 1777676862 | 23.89° C | 76% | 1005 hPa | - | - | 0 W/m² | - |
| 1777675040 | 23.89° C | 76% | 1005 hPa | - | - | 0 W/m² | - |
| 1777673218 | 24.44° C | 79% | 1004 hPa | - | - | 0 W/m² | - |
| 1777671396 | 24.44° C | 80% | 1004 hPa | - | - | 0 W/m² | - |
| 1777669573 | 23.89° C | 72% | 1004 hPa | - | - | 0 W/m² | - |
| 1777667752 | 23.89° C | 73% | 1004 hPa | - | - | 0 W/m² | - |
| 1777665930 | 23.89° C | 72% | 1004 hPa | - | - | 0 W/m² | - |
| 1777664107 | 23.89° C | 67% | 1004 hPa | - | - | 0 W/m² | - |
| 1777662285 | 23.33° C | 70% | 1005 hPa | - | - | 0 W/m² | - |
| 1777660462 | 23.89° C | 71% | 1005 hPa | - | - | 0 W/m² | - |
| 1777658641 | 24.44° C | 73% | 1005 hPa | - | - | 0 W/m² | - |
| 1777656818 | 24.44° C | 76% | 1006 hPa | - | - | 0 W/m² | - |
| 1777654996 | 24.44° C | 74% | 1006 hPa | - | - | 0 W/m² | - |
| 1777653174 | 24.44° C | 73% | 1006 hPa | - | - | 0 W/m² | - |
* Rain since midnight (hover to see other rain measurements)
** Current wind speed in m/s (hover to see current wind gust speed)